This is the latest recevied weather packets stored in our database for station/object N3MFL. If no packets are shown the sender has not sent any weather packets the latest 10 day(s).
| Time | Temp. | Humidity | Pressure | Rain* | Wind** | Luminosity | Snow |
|---|---|---|---|---|---|---|---|
| 1778105537 | 13.33° C | 94% | 1008.4 hPa | 0 mm | - | 34 W/m² | - |
| 1778105234 | 13.33° C | 94% | 1008.7 hPa | 0 mm | - | 10 W/m² | - |
| 1778104928 | 13.33° C | 94% | 1008.8 hPa | 0 mm | - | 15 W/m² | - |
| 1778104625 | 13.33° C | 94% | 1008.8 hPa | 0 mm | - | 15 W/m² | - |
| 1778104321 | 13.33° C | 94% | 1008.9 hPa | 0 mm | - | 17 W/m² | - |
| 1778104018 | 13.33° C | 94% | 1008.8 hPa | 0 mm | - | 15 W/m² | - |
| 1778103715 | 13.33° C | 93% | 1008.4 hPa | 0 mm | - | 31 W/m² | - |
| 1778103414 | 13.33° C | 93% | 1008.7 hPa | 0 mm | - | 32 W/m² | - |
| 1778103110 | 13.89° C | 92% | 1008.9 hPa | 0 mm | - | 25 W/m² | - |
| 1778102807 | 13.89° C | 92% | 1008.8 hPa | 0 mm | - | 28 W/m² | - |
| 1778102502 | 13.89° C | 92% | 1008.8 hPa | 0 mm | - | 27 W/m² | - |
| 1778102199 | 13.89° C | 92% | 1008.9 hPa | 0 mm | - | 36 W/m² | - |
| 1778101895 | 13.89° C | 92% | 1008.9 hPa | 0 mm | - | 32 W/m² | - |
| 1778101592 | 13.89° C | 91% | 1008.9 hPa | 0 mm | - | 42 W/m² | - |
| 1778101289 | 13.89° C | 91% | 1009 hPa | 0 mm | - | 32 W/m² | - |
| 1778100986 | 14.44° C | 90% | 1009.1 hPa | 0 mm | - | 49 W/m² | - |
| 1778100686 | 14.44° C | 90% | 1008.8 hPa | 0 mm | - | 32 W/m² | - |
| 1778100384 | 14.44° C | 90% | 1009.3 hPa | 0 mm | - | 29 W/m² | - |
| 1778100081 | 14.44° C | 90% | 1009.1 hPa | 0 mm | - | 30 W/m² | - |
| 1778099779 | 14.44° C | 90% | 1009 hPa | 0 mm | - | 40 W/m² | - |
| 1778099475 | 14.44° C | 90% | 1009.2 hPa | 0 mm | - | 31 W/m² | - |
| 1778099174 | 14.44° C | 90% | 1009.3 hPa | 0 mm | - | 31 W/m² | - |
| 1778098869 | 14.44° C | 90% | 1009.3 hPa | 0 mm | - | 42 W/m² | - |
| 1778098567 | 14.44° C | 90% | 1009.3 hPa | 0 mm | - | 28 W/m² | - |
| 1778098263 | 14.44° C | 90% | 1009.3 hPa | 0 mm | - | 29 W/m² | - |
* Rain latest hour (hover to see other rain measurements)
** Current wind speed in m/s (hover to see current wind gust speed)